This is the latest recevied weather packets stored in our database for station/object W5ITZ. If no packets are shown the sender has not sent any weather packets the latest 10 day(s).
| Time | Temp. | Humidity | Pressure | Rain* | Wind** | Luminosity | Snow |
|---|---|---|---|---|---|---|---|
| 1787952472 | 31.67° C | 66% | 1015.1 hPa | 0 mm | - | 157 W/m² | - |
| 1787952169 | 31.67° C | 65% | 1015.4 hPa | 0 mm | - | 141 W/m² | - |
| 1787951862 | 31.67° C | 64% | 1015.4 hPa | 0 mm | - | 167 W/m² | - |
| 1787951558 | 31.67° C | 64% | 1015.2 hPa | 0 mm | - | 261 W/m² | - |
| 1787951254 | 32.22° C | 62% | 1015.2 hPa | 0 mm | - | 264 W/m² | - |
| 1787950949 | 32.22° C | 56% | 1015.2 hPa | 0 mm | - | 531 W/m² | - |
| 1787950645 | 32.22° C | 53% | 1015.3 hPa | 0 mm | - | 343 W/m² | - |
| 1787950341 | 31.67° C | 53% | 1015.5 hPa | 0 mm | - | 289 W/m² | - |
| 1787950036 | 32.22° C | 52% | 1015.2 hPa | 0 mm | - | 333 W/m² | - |
| 1787949732 | 32.22° C | 51% | 1015 hPa | 0 mm | - | 406 W/m² | - |
| 1787949431 | 31.67° C | 53% | 1014.7 hPa | 0 mm | - | 387 W/m² | - |
| 1787949126 | 31.11° C | 58% | 1014.3 hPa | 0 mm | - | 854 W/m² | - |
| 1787948823 | 31.67° C | 59% | 1014.7 hPa | 0 mm | - | 963 W/m² | - |
| 1787948522 | 30.56° C | 59% | 1014.6 hPa | 0 mm | - | 962 W/m² | - |
| 1787948218 | 29.44° C | 63% | 1014.7 hPa | 0 mm | - | 316 W/m² | - |
| 1787947916 | 28.89° C | 66% | 1015 hPa | 0 mm | - | 217 W/m² | - |
| 1787947611 | 29.44° C | 65% | 1015.6 hPa | 0 mm | - | 198 W/m² | - |
| 1787947309 | 29.44° C | 61% | 1015.4 hPa | 0 mm | - | 175 W/m² | - |
| 1787947004 | 28.89° C | 64% | 1015.4 hPa | 0 mm | - | 173 W/m² | - |
| 1787946703 | 28.89° C | 67% | 1015.9 hPa | 0 mm | - | 191 W/m² | - |
| 1787946398 | 28.89° C | 68% | 1016.1 hPa | 0 mm | - | 309 W/m² | - |
| 1787946098 | 28.89° C | 65% | 1016.3 hPa | 0 mm | - | 694 W/m² | - |
| 1787945793 | 28.33° C | 66% | 1016.3 hPa | 0 mm | - | 1026 W/m² | - |
| 1787945493 | 28.33° C | 68% | 1016.7 hPa | 0 mm | - | 414 W/m² | - |
| 1787945189 | 28.33° C | 69% | 1016.7 hPa | 0 mm | - | 408 W/m² | - |
* Rain latest hour (hover to see other rain measurements)
** Current wind speed in m/s (hover to see current wind gust speed)